Location: Newark
(44.1667°N, 8.2500°E)
Time: 21:17:02
(UTC+00:00)

S-56A Canister/Altair - Pass Details

Date: 13 December 2019
Orbit: 634 x 2498 km, 38.9° (Epoch: 17 January)

Event Time Altitude Azimuth Distance (km) Brightness Sun altitude
Rises 14:29:57 0° 284° (WNW) 6,181 12.6 10.0°
Reaches altitude 10° 14:34:24 10° 278° (W) 5,141 12.3 9.5°
Maximum altitude 14:47:24 40° 217° (SW) 2,953 11.6 7.8°
Drops below altitude 10° 14:57:43 10° 153° (SSE) 4,076 11.5 6.4°
Sets 15:00:50 0° 146° (SE) 4,820 11.7 6.0°
